Wind_Speed
20 16 13 13 17 17 17 13 12 13 13 9 5 4 7 10 9 13 14 18 18 10 9 12 14 12 12 10 12 12 12 8 9 6 5 1 6 4 7 7 6 8 9 12
23 19 14 21 21 19 20 15 13 18 23 13 7 4 4 9 7 12 15 16 17 11 5 8 11 12 13 14 11 10 10 8 8 5 5 3 3 6 9 8 9 11 11 12
23 22 20 22 23 20 21 15 19 15 20 18 9 6 7 3 1 7 11 13 13 10 4 4 7 8 9 11 12 12 13 11 7 7 6 6 3 5 6 6 8 9 9 10
25 24 22 24 24 22 22 17 22 22 20 21 18 10 11 9 5 8 4 7 6 10 8 3 6 8 5 6 8 8 8 8 6 5 6 5 6 6 6 7 7 7 7 8
25 25 24 25 25 25 20 27 26 26 20 21 25 16 15 11 12 10 13 6 4 7 6 5 7 7 5 4 3 4 6 7 7 7 7 5 6 5 6 6 7 8 7 7
24 26 25 27 30 28 27 30 28 29 29 21 20 19 10 7 9 14 10 8 7 9 11 7 7 6 6 7 7 5 5 6 6 6 7 7 6 8 9 10 8 7 9 8
24 25 24 27 29 28 27 31 29 29 30 29 19 22 13 15 16 17 12 7 5 8 14 14 10 5 5 5 10 9 7 6 6 5 6 6 7 9 12 14 14 13 11 12
21 22 23 21 25 28 28 33 31 31 26 22 23 25 17 15 11 13 11 9 4 12 12 14 12 8 5 6 7 7 7 5 3 4 4 3 7 11 13 14 16 16 16 15
18 19 21 22 25 32 35 36 33 33 29 28 25 21 17 12 13 12 10 9 8 12 20 17 17 13 9 6 7 5 5 5 2 3 2 4 6 9 10 13 13 15 16 18
17 19 22 23 26 34 37 34 34 35 32 27 27 20 6 10 3 10 12 13 5 8 14 18 19 15 12 13 8 4 4 4 3 2 3 4 5 8 8 9 10 12 12 10
18 19 21 24 25 31 38 37 36 31 30 27 26 15 11 7 3 4 12 5 9 10 10 17 20 24 15 15 9 5 6 6 4 4 6 7 7 9 10 13 12 9 7 4
18 18 21 21 26 32 41 39 36 35 33 29 25 14 15 11 5 9 11 9 5 10 15 13 18 17 16 17 12 10 10 12 8 8 10 10 9 9 9 13 15 14 12 9
16 15 23 23 28 29 36 37 34 35 35 35 32 17 15 17 11 8 10 7 8 10 14 15 18 10 17 19 17 14 18 18 13 11 13 13 13 11 14 14 18 19 19 17
20 18 16 26 26 29 31 29 29 30 28 27 28 18 16 16 15 13 11 6 7 8 15 12 15 12 18 21 20 22 26 26 21 18 19 19 20 15 14 13 13 16 19 20
24 21 20 22 26 29 33 32 29 28 29 29 28 22 15 15 18 11 6 6 6 11 11 11 12 11 11 19 26 31 39 30 29 29 32 27 19 18 15 14 11 9 14 16
27 26 22 21 31 35 38 35 32 30 26 28 28 26 20 19 15 7 9 7 4 5 9 10 17 17 18 21 23 29 33 33 9 22 15 21 22 20 18 12 11 13 17 15
29 29 25 23 24 32 42 41 38 35 31 32 28 27 27 22 18 12 6 9 5 10 16 17 15 14 19 22 25 21 22 24 22 18 15 9 11 11 19 9 17 21 21 21
36 33 32 30 31 33 27 35 42 42 39 33 31 29 28 24 23 22 16 13 10 16 20 12 11 12 16 17 20 18 22 17 17 16 14 13 14 12 9 11 19 22 22 22
41 41 37 36 36 39 37 30 30 38 44 42 38 31 29 34 28 28 20 13 16 15 18 15 9 11 16 19 24 17 17 16 18 19 18 18 17 18 15 18 22 22 22 23
34 42 46 44 44 43 32 32 30 32 36 45 44 31 31 25 31 20 24 25 21 17 22 23 22 20 23 23 25 20 14 17 18 16 16 23 24 20 21 25 28 27 26 26
26 30 39 42 45 41 30 25 22 30 25 33 39 31 29 27 25 16 20 24 24 26 26 29 26 25 30 26 23 19 13 16 17 18 19 24 24 24 24 26 29 30 30 29
22 29 25 30 34 34 28 22 23 26 23 28 34 28 25 29 20 20 24 24 28 29 31 31 29 24 29 23 13 14 17 15 19 21 22 22 22 24 28 31 32 31 30 30
25 26 27 26 26 23 24 26 23 22 22 27 30 33 30 22 28 30 23 23 28 32 35 32 32 26 23 20 19 19 19 18 21 22 24 25 26 28 31 32 33 32 31 32
25 21 20 23 22 16 14 22 27 21 22 30 29 23 20 26 32 30 29 26 29 23 39 43 41 37 25 20 20 23 20 20 21 22 25 27 28 30 33 34 33 33 34 36
23 20 21 22 21 19 21 21 26 26 22 30 29 27 28 27 23 13 20 29 37 35 29 20 21 21 17 20 20 20 19 20 19 22 27 28 29 31 35 36 36 38 38 41
22 18 22 19 16 17 17 23 25 33 27 24 29 31 20 17 20 24 27 28 27 40 28 22 23 19 19 20 21 21 24 23 24 27 29 29 30 32 36 38 39 41 43 43
Wind_Direction
251 254 248 225 225 225 225 236 255 253 264 238 198 78 88 96 52 27 21 9 360 356 36 31 33 40 55 68 78 86 85 81 79 99 118 47 287 294 281 277 305 305 310 317
254 253 230 229 234 226 229 232 219 231 255 239 165 84 117 115 60 25 16 8 1 346 20 31 39 32 50 61 70 83 90 73 76 94 102 113 43 23 19 5 14 357 350 317
245 251 237 229 241 234 238 217 230 242 239 246 228 210 214 221 67 2 3 353 344 346 328 34 31 34 37 56 64 67 74 75 73 85 95 84 57 24 6 351 353 345 339 343
238 242 237 229 239 237 240 222 232 226 232 237 245 231 239 192 236 336 325 321 333 321 315 330 348 344 5 28 42 49 67 70 68 60 82 61 54 36 5 343 348 337 333 345
238 241 236 232 229 231 214 219 228 221 236 249 251 254 236 223 254 284 317 275 286 315 345 21 36 356 303 298 345 4 18 34 32 12 2 1 350 355 329 341 338 339 323 317
243 241 234 231 225 228 205 217 225 229 238 244 250 262 257 258 264 303 294 291 276 272 297 308 331 348 329 265 274 296 323 343 3 10 356 349 321 310 311 299 296 306 322 327
240 238 240 234 233 232 211 214 226 238 243 243 250 258 259 271 284 295 280 285 289 266 284 287 296 288 307 286 253 257 278 310 331 359 10 348 326 312 300 299 295 293 294 304
242 245 242 244 237 228 215 210 228 235 242 257 255 260 274 272 289 293 291 253 246 286 271 281 295 254 258 271 257 243 260 282 309 332 4 348 324 314 317 310 302 294 280 276
243 237 236 225 218 220 224 213 227 239 246 251 255 259 278 280 291 298 301 242 247 281 301 317 344 307 270 243 246 241 256 256 305 344 357 340 305 304 314 319 318 314 289 267
237 234 230 219 214 216 216 225 229 241 247 252 252 254 262 258 332 327 273 205 181 301 299 305 297 302 267 263 230 245 245 241 249 282 319 304 286 289 302 314 327 339 333 294
225 225 229 222 215 218 221 223 232 240 245 254 260 254 212 255 302 326 162 190 230 266 294 310 310 301 243 258 248 254 274 269 256 265 277 277 284 295 307 308 310 328 322 273
221 210 226 224 216 213 217 226 234 242 246 251 261 221 227 239 202 150 192 202 236 297 285 285 308 298 240 248 252 248 260 258 264 276 276 273 273 283 290 297 303 299 287 269
217 209 206 214 213 213 221 230 240 246 251 250 258 251 230 231 229 225 223 219 269 266 279 294 295 300 252 260 254 259 260 248 243 241 260 258 257 273 289 293 296 285 279 274
227 218 215 217 215 219 225 229 236 238 241 239 246 239 244 251 230 236 231 278 282 277 273 289 297 297 258 259 259 255 246 245 244 237 240 249 257 263 291 302 306 293 288 285
239 235 224 207 211 219 221 228 234 245 243 247 253 239 243 245 230 234 265 277 236 283 280 285 296 294 252 251 256 265 257 239 240 236 233 224 251 252 279 295 317 317 306 292
260 253 238 227 216 220 218 225 231 239 249 254 259 246 238 234 256 261 261 205 223 305 294 314 304 296 277 261 268 290 294 330 269 334 306 241 319 251 250 276 309 313 307 304
250 257 257 246 245 232 230 231 233 237 242 253 255 256 242 250 262 258 212 220 211 303 298 305 305 284 276 269 273 295 302 310 358 351 348 352 314 318 270 263 303 309 301 300
243 249 254 248 249 253 250 242 239 239 239 250 255 258 259 260 264 264 246 256 236 277 298 293 300 291 273 275 294 295 295 325 331 338 341 343 344 345 317 301 304 305 295 303
239 241 245 254 251 257 264 262 259 250 241 243 250 252 275 268 259 258 259 271 263 277 284 282 292 284 288 289 274 287 300 318 320 331 336 322 321 323 318 308 305 300 301 305
251 243 243 246 253 261 264 267 267 261 245 240 247 257 268 245 252 264 263 271 279 268 274 271 278 292 299 294 292 256 296 312 316 320 318 325 323 319 309 310 307 305 308 308
252 245 245 248 255 264 260 261 256 263 254 239 241 252 247 244 257 251 247 261 267 266 263 269 272 284 283 270 309 321 307 315 314 317 315 312 316 309 303 303 309 310 310 308
245 242 245 244 249 250 254 254 259 272 258 237 234 239 247 245 251 254 247 255 269 269 261 262 273 283 293 310 317 302 314 320 303 305 307 309 307 305 303 303 301 297 297 299
251 245 246 244 256 262 254 244 243 261 250 234 238 248 251 240 247 247 244 268 272 273 260 267 277 290 299 300 297 299 302 304 299 299 301 300 303 302 299 297 298 300 301 302
242 241 244 254 262 261 248 231 231 230 244 238 237 246 271 240 233 239 251 261 284 268 275 272 261 274 282 288 294 300 315 314 309 304 297 294 294 297 298 296 296 298 298 297
234 243 247 253 264 250 251 236 231 228 246 235 231 244 254 246 251 237 248 254 261 264 267 270 255 251 268 281 288 299 297 295 297 293 288 289 297 300 299 300 302 302 301 300
234 256 249 245 262 249 234 238 240 221 225 221 231 235 231 248 255 253 254 261 275 262 245 257 261 255 267 273 278 277 280 288 293 293 294 302 305 301 300 299 298 298 297 298
Height
5897 5901 5904 5905 5906 5908 5910 5912 5913 5914 5914 5916 5916 5915 5916 5915 5915 5914 5912 5909 5906 5905 5904 5902 5900 5899 5895 5894 5892 5891 5890 5892 5890 5892 5894 5894 5896 5894 5894 5893 5892 5891 5890 5890
5893 5897 5902 5900 5903 5905 5907 5910 5913 5913 5912 5913 5914 5914 5916 5914 5915 5915 5912 5909 5907 5905 5904 5903 5902 5901 5899 5897 5896 5894 5894 5894 5893 5895 5894 5895 5896 5895 5893 5893 5890 5890 5889 5889
5889 5892 5895 5897 5899 5902 5904 5908 5910 5912 5910 5910 5911 5914 5914 5915 5914 5915 5914 5910 5907 5905 5904 5904 5903 5902 5902 5900 5898 5897 5896 5896 5898 5898 5896 5896 5897 5894 5892 5891 5891 5890 5889 5889
5885 5887 5890 5893 5895 5898 5901 5906 5906 5909 5908 5909 5908 5913 5913 5913 5914 5914 5913 5911 5908 5906 5904 5904 5903 5903 5902 5901 5900 5899 5899 5899 5899 5899 5898 5896 5894 5892 5892 5891 5890 5891 5890 5889
5881 5882 5885 5888 5891 5893 5900 5898 5901 5905 5906 5907 5906 5909 5910 5909 5911 5913 5912 5911 5908 5907 5905 5902 5902 5901 5900 5900 5899 5900 5900 5899 5898 5897 5897 5895 5893 5892 5892 5891 5891 5890 5890 5889
5877 5878 5880 5883 5884 5887 5893 5896 5899 5901 5903 5905 5906 5906 5909 5908 5908 5909 5910 5908 5908 5906 5904 5902 5901 5899 5899 5898 5898 5898 5898 5898 5897 5895 5894 5893 5893 5892 5891 5890 5890 5889 5888 5887
5869 5873 5876 5879 5881 5885 5889 5893 5895 5898 5899 5904 5902 5902 5906 5905 5906 5906 5907 5905 5906 5904 5901 5900 5900 5898 5897 5896 5896 5897 5897 5896 5895 5894 5893 5892 5891 5890 5890 5889 5887 5886 5886 5885
5865 5870 5872 5877 5879 5882 5885 5889 5891 5893 5896 5899 5898 5898 5902 5902 5903 5903 5903 5903 5904 5903 5901 5900 5899 5897 5895 5896 5895 5894 5895 5894 5892 5892 5892 5891 5890 5889 5888 5886 5885 5884 5883 5882
5862 5864 5867 5871 5874 5877 5880 5884 5888 5889 5892 5893 5894 5895 5899 5900 5900 5899 5899 5901 5901 5900 5898 5899 5898 5896 5895 5892 5893 5893 5892 5891 5891 5890 5889 5888 5888 5887 5886 5886 5883 5880 5878 5877
5857 5860 5862 5865 5869 5871 5876 5881 5884 5885 5887 5889 5889 5892 5897 5896 5897 5896 5896 5896 5898 5899 5897 5896 5894 5894 5892 5892 5889 5890 5890 5889 5886 5885 5886 5886 5886 5885 5883 5882 5880 5877 5875 5874
5854 5856 5859 5862 5865 5869 5872 5875 5879 5881 5883 5884 5885 5890 5893 5893 5894 5895 5895 5894 5896 5896 5897 5894 5890 5886 5888 5889 5886 5886 5887 5887 5884 5882 5882 5883 5883 5883 5882 5880 5878 5875 5873 5872
5850 5852 5854 5859 5862 5865 5868 5872 5874 5876 5879 5880 5881 5886 5887 5889 5892 5893 5894 5892 5894 5895 5893 5891 5888 5885 5884 5885 5884 5882 5883 5883 5881 5880 5880 5881 5880 5879 5877 5877 5875 5873 5871 5868
5848 5852 5852 5855 5859 5861 5864 5868 5871 5872 5874 5875 5877 5881 5882 5884 5888 5890 5890 5890 5891 5891 5888 5886 5884 5883 5883 5884 5883 5881 5881 5879 5875 5873 5875 5876 5875 5874 5872 5871 5869 5869 5868 5866
5847 5848 5850 5854 5857 5861 5863 5865 5867 5868 5869 5870 5872 5876 5878 5880 5884 5887 5887 5886 5886 5886 5883 5881 5880 5878 5879 5881 5879 5875 5870 5867 5867 5865 5867 5867 5869 5868 5868 5869 5865 5862 5862 5861
5844 5846 5848 5851 5854 5855 5858 5862 5864 5864 5866 5867 5869 5871 5874 5876 5880 5883 5884 5882 5881 5882 5879 5879 5877 5875 5875 5875 5873 5870 5852 5848 5848 5854 5850 5854 5861 5864 5865 5865 5862 5858 5856 5856
5839 5841 5844 5847 5849 5850 5852 5855 5858 5859 5861 5862 5864 5866 5870 5873 5876 5880 5880 5879 5879 5880 5879 5877 5873 5871 5871 5871 5867 5864 5856 5842 5836 5854 5843 5854 5859 5862 5859 5858 5857 5855 5854 5852
5836 5837 5840 5843 5844 5845 5847 5850 5853 5854 5856 5857 5859 5862 5865 5869 5872 5875 5876 5876 5875 5876 5875 5873 5870 5868 5867 5866 5863 5861 5855 5851 5852 5856 5856 5853 5856 5850 5852 5852 5851 5850 5850 5848
5830 5832 5834 5837 5838 5838 5844 5846 5847 5848 5850 5852 5855 5857 5859 5864 5867 5869 5871 5871 5870 5869 5867 5866 5866 5864 5863 5864 5857 5857 5853 5852 5853 5854 5852 5849 5850 5850 5850 5848 5848 5847 5845 5842
5821 5825 5827 5828 5831 5833 5836 5838 5840 5840 5843 5846 5849 5851 5853 5856 5858 5861 5865 5866 5864 5863 5862 5861 5860 5858 5856 5855 5851 5850 5850 5850 5850 5845 5842 5843 5845 5844 5844 5844 5843 5842 5839 5835
5810 5816 5820 5821 5822 5823 5828 5831 5833 5831 5832 5838 5843 5847 5848 5850 5852 5857 5859 5860 5860 5859 5857 5856 5854 5851 5849 5851 5846 5832 5844 5845 5845 5845 5843 5842 5840 5839 5841 5841 5840 5837 5833 5830
5801 5804 5807 5811 5812 5816 5822 5825 5827 5825 5832 5832 5836 5841 5844 5847 5849 5852 5853 5853 5854 5852 5851 5848 5846 5846 5843 5842 5840 5832 5843 5841 5842 5842 5838 5837 5837 5838 5837 5835 5832 5830 5827 5824
5795 5796 5800 5802 5803 5807 5814 5818 5820 5822 5822 5826 5829 5835 5838 5842 5844 5846 5848 5849 5848 5846 5845 5844 5844 5842 5839 5831 5838 5842 5841 5837 5837 5837 5835 5834 5832 5831 5829 5827 5824 5820 5818 5815
5789 5791 5793 5795 5799 5802 5804 5810 5814 5816 5818 5820 5824 5828 5830 5833 5837 5839 5842 5845 5844 5844 5842 5843 5842 5841 5837 5836 5838 5836 5835 5834 5835 5833 5830 5828 5825 5822 5821 5820 5816 5812 5808 5806
5782 5785 5788 5789 5793 5796 5799 5801 5805 5809 5812 5815 5818 5820 5823 5826 5831 5833 5836 5840 5837 5833 5834 5832 5834 5835 5834 5834 5832 5832 5826 5824 5824 5823 5823 5821 5819 5816 5813 5811 5809 5806 5803 5800
5778 5781 5782 5785 5786 5789 5792 5794 5798 5805 5806 5809 5811 5814 5816 5818 5823 5824 5828 5830 5825 5825 5825 5821 5826 5830 5828 5827 5825 5825 5823 5820 5818 5817 5815 5812 5809 5807 5807 5804 5801 5798 5795 5791
5773 5775 5776 5778 5779 5782 5784 5786 5790 5796 5801 5804 5806 5808 5810 5812 5814 5814 5816 5816 5815 5816 5818 5817 5819 5818 5819 5820 5820 5819 5816 5813 5810 5808 5806 5803 5801 5799 5798 5795 5791 5788 5784 5780